Weather History for Antigo, WI

Change the Weather History Date:

Thursday, January 31, 2013

  Actual Average Record
Temperature  
Mean Temperature 5 °F -  
Max Temperature 11 °F 23 °F 44 °F (1952)
Min Temperature -1 °F 0 °F -22 °F (1985)
Degree Days  
Heating Degree Days 60    
Moisture  
Dew Point 0 °F    
Average Humidity 75    
Maximum Humidity 85    
Minimum Humidity 64    
Precipitation  
Precipitation 0.00 in - - ()
Sea Level Pressure  
Sea Level Pressure 29.69 in    
Wind  
Wind Speed 14 mph (WNW)    
Max Wind Speed 18 mph    
Max Gust Speed 26 mph    
Visibility 9 miles    
Events Snow    
Averages and records for this station are not official NWS values.
T = Trace of Precipitation, MM = Missing Value Source: NWS Daily Summary

Daily Weather History Graph

Daily Weather History Graph

Search for Another Location

Airport:

Trip Planner

Search our weather history database for the weather conditions in past years. The results will help you decide how hot, cold, wet, or windy it might be!

Date:

Astronomy

Jan. 31, 2013 Rise Set
Actual Time 7:17 AM CST 5:03 PM CST
Civil Twilight 6:46 AM CST 5:34 PM CST
Nautical Twilight 6:10 AM CST 6:09 PM CST
Astronomical Twilight 5:36 AM CST 6:44 PM CST
Moon 10:22 PM CST (1/31) 9:01 AM CST (1/31)
Length of Visible Light 10h 48m
Length of Day
9h 45m
Waning Gibbous, 79% of the Moon is Illuminated
Jan 31
Waning Gibbous
Feb 3
Last Quarter
Feb 10
New
Feb 17
First Quarter
Feb 25
Full

Hourly Weather History & Observations

Time (CST) Temp. Windchill Dew Point Humidity Pressure Visibility Wind Dir Wind Speed Gust Speed Precip Events Conditions
12:15 AM 11.1 °F -3.9 °F 7.5 °F 85% 29.46 in 1.5 mi NW 12.7 mph 19.6 mph N/A Snow Light Snow
12:35 AM 10.9 °F -5.4 °F 6.4 °F 82% 29.46 in 7.0 mi WNW 15.0 mph 20.7 mph N/A Snow Light Snow
12:55 AM 10.8 °F -5.0 °F 6.3 °F 82% 29.47 in 5.0 mi WNW 13.8 mph 23.0 mph N/A Snow Light Snow
1:15 AM 10.4 °F -6.0 °F 5.9 °F 82% 29.48 in 7.0 mi WNW 15.0 mph 19.6 mph N/A Snow Light Snow
1:35 AM 10.0 °F -7.6 °F 5.5 °F 82% 29.48 in 7.0 mi WNW 17.3 mph 21.9 mph N/A Snow Light Snow
1:55 AM 9.9 °F -6.1 °F 5.4 °F 82% 29.49 in 7.0 mi WNW 13.8 mph - N/A Snow Light Snow
2:15 AM 9.5 °F -7.2 °F 5.0 °F 82% 29.50 in 7.0 mi WNW 15.0 mph - N/A   Overcast
2:35 AM 9.3 °F -7.4 °F 5.0 °F 83% 29.51 in 5.0 mi WNW 15.0 mph 19.6 mph N/A Snow Light Snow
2:55 AM 9.1 °F -7.7 °F 4.5 °F 81% 29.51 in 7.0 mi WNW 15.0 mph - N/A Snow Light Snow
3:15 AM 8.6 °F -8.9 °F 4.1 °F 82% 29.52 in 7.0 mi WNW 16.1 mph - N/A   Overcast
3:35 AM 8.6 °F -8.3 °F 3.9 °F 81% 29.52 in 10.0 mi WNW 15.0 mph - N/A   Overcast
3:55 AM 8.2 °F -9.4 °F 3.6 °F 81% 29.52 in 7.0 mi West 16.1 mph - N/A   Overcast
4:15 AM 7.7 °F -10.7 °F 3.0 °F 81% 29.53 in 7.0 mi WNW 17.3 mph 21.9 mph N/A   Overcast
4:35 AM 7.5 °F -9.7 °F 2.7 °F 81% 29.54 in 7.0 mi WNW 15.0 mph 20.7 mph N/A   Overcast
4:55 AM 7.3 °F -10.6 °F 2.3 °F 80% 29.54 in 10.0 mi WNW 16.1 mph 21.9 mph N/A   Overcast
5:15 AM 7.2 °F -9.6 °F 2.1 °F 80% 29.54 in 10.0 mi WNW 13.8 mph 21.9 mph N/A   Overcast
5:35 AM 7.2 °F -9.6 °F 2.1 °F 80% 29.55 in 10.0 mi WNW 13.8 mph 19.6 mph N/A   Overcast
5:55 AM 6.8 °F -10.0 °F 1.4 °F 79% 29.55 in 10.0 mi WNW 13.8 mph - N/A   Overcast
6:15 AM 6.6 °F -11.5 °F 1.2 °F 79% 29.56 in 10.0 mi WNW 16.1 mph - N/A   Overcast
6:35 AM 6.4 °F -11.1 °F 1.0 °F 78% 29.56 in 10.0 mi WNW 15.0 mph - N/A   Overcast
6:55 AM 6.3 °F -12.0 °F 0.5 °F 77% 29.57 in 10.0 mi WNW 16.1 mph 24.2 mph N/A   Overcast
7:15 AM 5.9 °F -12.4 °F 0.3 °F 78% 29.59 in 10.0 mi WNW 16.1 mph 23.0 mph N/A   Overcast
7:35 AM 5.0 °F -14.7 °F -0.6 °F 78% 29.59 in 7.0 mi WNW 18.4 mph 26.5 mph N/A   Overcast
7:55 AM 4.3 °F -13.9 °F -1.3 °F 78% 29.61 in 10.0 mi WNW 15.0 mph - N/A   Overcast
8:15 AM 3.2 °F -14.6 °F -2.0 °F 79% 29.62 in 10.0 mi WNW 13.8 mph - N/A   Overcast
8:35 AM 2.7 °F -14.5 °F -2.7 °F 78% 29.62 in 10.0 mi WNW 12.7 mph - N/A   Scattered Clouds
8:55 AM 2.7 °F -15.3 °F -3.1 °F 77% 29.64 in 10.0 mi WNW 13.8 mph 19.6 mph N/A   Clear
9:15 AM 3.2 °F -13.9 °F -2.7 °F 76% 29.64 in 10.0 mi WNW 12.7 mph - N/A   Mostly Cloudy
9:35 AM 3.2 °F -12.2 °F -3.1 °F 75% 29.65 in 10.0 mi WNW 10.4 mph - N/A   Scattered Clouds
9:55 AM 4.1 °F -13.4 °F -2.6 °F 74% 29.66 in 10.0 mi WNW 13.8 mph - N/A   Clear
10:15 AM 4.8 °F -13.2 °F -2.4 °F 72% 29.67 in 10.0 mi WNW 15.0 mph - N/A   Scattered Clouds
10:35 AM 6.3 °F -11.3 °F -1.8 °F 69% 29.68 in 10.0 mi WNW 15.0 mph 21.9 mph N/A   Scattered Clouds
10:55 AM 6.4 °F -11.1 °F -1.3 °F 71% 29.68 in 10.0 mi WNW 15.0 mph - N/A   Overcast
11:15 AM 7.5 °F -8.4 °F -0.4 °F 70% 29.68 in 10.0 mi WNW 12.7 mph 19.6 mph N/A   Overcast
11:35 AM 8.6 °F -10.0 °F 0.5 °F 70% 29.68 in 10.0 mi WNW 18.4 mph - N/A   Overcast
11:55 AM 8.8 °F -6.1 °F -0.4 °F 66% 29.68 in 10.0 mi WNW 11.5 mph 19.6 mph N/A   Mostly Cloudy
12:15 PM 8.8 °F -7.5 °F -0.2 °F 67% 29.69 in 10.0 mi WNW 13.8 mph - N/A   Mostly Cloudy
12:35 PM 10.2 °F -6.9 °F 0.9 °F 66% 29.69 in 10.0 mi WNW 16.1 mph 23.0 mph N/A   Overcast
12:55 PM 10.4 °F -4.8 °F 1.8 °F 68% 29.69 in 5.0 mi NW 12.7 mph 19.6 mph N/A   Haze
1:15 PM 10.0 °F -5.2 °F 0.7 °F 66% 29.70 in 10.0 mi NW 12.7 mph 20.7 mph N/A   Overcast
1:35 PM 10.2 °F -6.3 °F 1.6 °F 68% 29.71 in 10.0 mi NW 15.0 mph 24.2 mph N/A   Overcast
1:55 PM 9.9 °F -6.7 °F 3.4 °F 75% 29.71 in 2.0 mi WNW 15.0 mph - N/A   Haze
2:15 PM 10.2 °F -6.9 °F 0.3 °F 64% 29.72 in 10.0 mi WNW 16.1 mph 24.2 mph N/A   Overcast
2:35 PM 10.0 °F -5.2 °F 0.3 °F 65% 29.73 in 10.0 mi NW 12.7 mph 20.7 mph N/A   Overcast
2:55 PM 9.5 °F -6.6 °F 2.1 °F 72% 29.73 in 5.0 mi WNW 13.8 mph - N/A   Haze
3:15 PM 9.7 °F -5.7 °F 0.5 °F 66% 29.74 in 10.0 mi NW 12.7 mph - N/A   Overcast
3:35 PM 9.0 °F -7.3 °F 2.1 °F 74% 29.76 in 5.0 mi WNW 13.8 mph - N/A   Haze
3:55 PM 9.0 °F -8.5 °F -0.2 °F 66% 29.76 in 10.0 mi NW 16.1 mph 20.7 mph N/A   Overcast
4:15 PM 8.2 °F -8.2 °F -0.9 °F 66% 29.78 in 10.0 mi NW 13.8 mph - N/A   Overcast
4:35 PM 7.2 °F -10.2 °F -0.4 °F 71% 29.79 in 4.0 mi WNW 15.0 mph 23.0 mph N/A   Haze
4:55 PM 6.8 °F -10.7 °F -2.2 °F 67% 29.81 in 7.0 mi NW 15.0 mph 25.3 mph N/A   Overcast
5:15 PM 5.9 °F -12.4 °F -3.1 °F 67% 29.81 in 10.0 mi NW 16.1 mph 21.9 mph N/A   Mostly Cloudy
5:35 PM 5.0 °F -12.3 °F -3.1 °F 69% 29.83 in 10.0 mi WNW 13.8 mph 21.9 mph N/A   Scattered Clouds
5:55 PM 4.3 °F -13.2 °F -2.7 °F 73% 29.84 in 10.0 mi NW 13.8 mph - N/A   Clear
6:15 PM 3.7 °F -12.4 °F -3.6 °F 71% 29.85 in 10.0 mi NW 11.5 mph 18.4 mph N/A   Clear
6:35 PM 3.0 °F -14.1 °F -4.9 °F 70% 29.86 in 10.0 mi WNW 12.7 mph - N/A   Clear
7:15 PM 1.9 °F -15.5 °F -4.5 °F 74% 29.88 in 10.0 mi WNW 12.7 mph - N/A   Clear
7:35 PM 2.1 °F -15.2 °F -4.4 °F 74% 29.88 in 10.0 mi WNW 12.7 mph - N/A   Clear
7:55 PM 1.8 °F -17.1 °F -4.5 °F 75% 29.89 in 10.0 mi WNW 15.0 mph - N/A   Clear
8:15 PM 1.4 °F -16.1 °F -4.9 °F 75% 29.90 in 10.0 mi WNW 12.7 mph - N/A   Clear
8:35 PM 1.0 °F -17.3 °F -4.4 °F 78% 29.90 in 10.0 mi WNW 13.8 mph 18.4 mph N/A   Clear
9:15 PM 0.7 °F -17.8 °F -4.5 °F 79% 29.92 in 10.0 mi WNW 13.8 mph - N/A   Clear
9:35 PM 0.5 °F -18.0 °F -5.1 °F 77% 29.93 in 10.0 mi WNW 13.8 mph - N/A   Clear
9:55 PM 0.1 °F -17.7 °F -5.3 °F 78% 29.93 in 10.0 mi WNW 12.7 mph 20.7 mph N/A   Clear
10:15 PM -0.4 °F -19.2 °F -5.8 °F 78% 29.94 in 10.0 mi WNW 13.8 mph - N/A   Clear
10:35 PM -0.8 °F -18.9 °F -6.0 °F 79% 29.94 in 10.0 mi WNW 12.7 mph - N/A   Clear
10:55 PM -1.1 °F -19.3 °F -6.5 °F 78% 29.94 in 10.0 mi WNW 12.7 mph - N/A   Clear
11:15 PM -1.3 °F -21.7 °F -6.7 °F 78% 29.94 in 10.0 mi WNW 16.1 mph - N/A   Clear
11:35 PM -1.5 °F -21.3 °F -6.9 °F 78% 29.95 in 10.0 mi WNW 15.0 mph - N/A   Clear